Regional Weather Roundup
Issued by NWS State College, PA

Home | Current Version | Previous Version | Text Only | Print | Product List | Glossary On
Versions: 1 2 3 4 5 6 7 8 9 10 11 12 13 14 15 16 17 18 19 20 21 22 23 24 25 26 27 28 29 30 31 32 33 34 35 36 37 38 39 40 41 42 43 44 45 46 47 48 49 50
000
ASUS41 KCTP 180610
RWRCTP

REGIONAL WEATHER ROUNDUP
NATIONAL WEATHER SERVICE STATE COLLEGE PA
100 AM EST THU DEC 18 2014

Note: "fair" indicates few or no clouds below 12,000 feet with no
significant weather and/or obstructions to visibility.

* = STATION THAT DOES NOT REPORT PRECIPITATION /E.G. RAIN...SNOW...ETC/
    THUNDER OR FOG.

PAZ002>004-007>009-013>016-020>023-029>032-180700-
WESTERN PENNSYLVANIA

CITY           SKY/WX    TMP DP  RH WIND       PRES   REMARKS
ERIE           CLOUDY    32  22  66 W15G22    30.09R
MEADVILLE      LGT SNOW  27  23  85 W14G21    30.07R FOG
FRANKLIN*      CLOUDY    27  19  74 W12       30.09R
NEW CASTLE     FLURRIES  28  21  75 SW13      30.15R
BEAVER COUNTY  NOT AVBL
BUTLER*        CLOUDY    28  19  69 W14G22    30.14R
PITTSBURGH INT FLURRIES  28  20  71 W16G23    30.13S
PITTSBURGH     CLOUDY    28  16  60 NW8       30.13R
INDIANA*       CLOUDY    28  23  80 W12       30.12R
LATROBE        NOT AVBL
WASHINGTON CO* CLOUDY    28  18  64 W12G20    30.17R
$$

PAZ004>006-010>012-017>019-024>028-033>037-041-042-045-046-049>053-180700-
CENTRAL PENNSYLVANIA

CITY           SKY/WX    TMP DP  RH WIND       PRES   REMARKS
BRADFORD       CLOUDY    26  20  77 W16G26    29.96S WCI  14
DUBOIS         CLOUDY    26  20  77 W16G22    30.01S WCI  14
CLEARFIELD     CLOUDY    27  21  78 W6        30.02F
JOHNSTOWN      CLOUDY    25  15  66 W28G37    30.01R WCI   9
ALTOONA        CLOUDY    30  21  69 NW15      30.04R
STATE COLLEGE  CLOUDY    30  19  62 W16G25    30.03S
WILLIAMSPORT   CLOUDY    34  21  59 W15G22    29.99R
SELINSGROVE    CLOUDY    34  22  61 W8G22     30.02S
FT INDIANTOWN  LGT RAIN  35  21  56 W20G29    30.01S
CAPITAL CITY   CLOUDY    37  22  54 NW12G18   30.04R
HARRISBURG     CLOUDY    36  22  56 NW18      30.03R
YORK           CLOUDY    36  23  59 NW14      30.03R
$$

PAZ038>040-043-044-047-048-054-055-060>062-067>071-180700-
EASTERN PENNSYLVANIA

CITY           SKY/WX    TMP DP  RH WIND       PRES   REMARKS
SCRANTON       LGT SNOW  33  28  81 W14       29.93R
MOUNT POCONO   LGT SNOW  29  25  85 NW12      29.85S FOG
ALLENTOWN      CLOUDY    37  23  56 NW12G21   29.94S
QUAKERTOWN*    CLOUDY    36  23  60 W14G20    29.95S
READING        MOCLDY    35  21  56 W15G28    29.98R
LANCASTER      CLOUDY    36  20  52 NW21G32   30.01R
COATESVILLE    MOCLDY    36  25  64 W14       29.98S
POTTSTOWN      MOCLDY    35  22  58 W10G20    29.98R
BLUE BELL      CLOUDY    36  25  64 W6        29.96S
DOYLESTOWN     CLOUDY    34  24  67 W10G16    29.94S
WILLOW GROVE   NOT AVBL
NORTH PHILA    MOCLDY    38  21  50 W13G22    29.98S
PHILADELPHIA   PTCLDY    37  23  56 W9        29.99S
$$


USA.gov is the U.S. government's official web portal to all federal, state and local government web resources and services.